Lapeer, MI

2:17 PM EDT on May 25, 2017 (GMT -0400)
Lapeer

Weather History for KD95 - November, 2012

Change the Weather History Date:

Tuesday, November 13, 2012

  Actual Average (KFNT) Record (KFNT)
Temperature  
Mean Temperature 28 °F -  
Max Temperature 35 °F 44 °F 71 °F (1989)
Min Temperature 22 °F 29 °F 12 °F (1986)
Degree Days  
Heating Degree Days 36    
Moisture  
Dew Point 22 °F    
Average Humidity 73    
Maximum Humidity 100    
Minimum Humidity 53    
Precipitation  
Precipitation 0.00 in - - ()
Sea Level Pressure  
Sea Level Pressure 30.41 in    
Wind  
Wind Speed 6 mph ()    
Max Wind Speed 13 mph    
Max Gust Speed 22 mph    
Visibility 9.9 miles    
Events Snow    
Averages and records for this station are not official NWS values.
T = Trace of Precipitation, MM = Missing Value Source: Averaged Metar Reports

Daily Weather History Graph

Daily Weather History Graph

Search for Another Location

Airport or City:

Trip Planner

Search our weather history database for the weather conditions in past years. The results will help you decide how hot, cold, wet, or windy it might be!

Date:

Astronomy

Nov. 13, 2012 Rise Set
Actual Time 7:23 AM EST 5:10 PM EST
Civil Twilight 6:53 AM EST 5:41 PM EST
Nautical Twilight 6:18 AM EST 6:15 PM EST
Astronomical Twilight 5:45 AM EST 6:48 PM EST
Moon 7:00 AM EST (11/13) 5:02 PM EST (11/13)
Length of Visible Light 10h 47m
Length of Day
9h 46m
Waning Crescent, 0% of the Moon is Illuminated
Nov 13
Waning Crescent
Nov 13
New
Nov 20
First Quarter
Nov 28
Full
Dec 6
Last Quarter

Hourly Weather History & Observations

Time (EST) Temp. Windchill Dew Point Humidity Pressure Visibility Wind Dir Wind Speed Gust Speed Precip Events Conditions
12:14 AM 31.5 °F 22.3 °F 30.4 °F 96% 30.23 in 2.0 mi West 11.5 mph 21.9 mph N/A Snow Light Snow
12:33 AM 31.8 °F 24.6 °F 29.7 °F 92% 30.23 in 10.0 mi WSW 8.1 mph - N/A   Overcast
12:53 AM 32.0 °F 25.6 °F 29.3 °F 90% 30.23 in 10.0 mi West 6.9 mph - N/A Snow Light Snow
1:14 AM 31.6 °F 22.1 °F 25.3 °F 78% 30.24 in 10.0 mi West 12.7 mph 20.7 mph N/A Snow Light Snow
1:33 AM 31.3 °F 23.9 °F 25.3 °F 79% 30.25 in 10.0 mi West 8.1 mph - N/A   Overcast
1:53 AM 31.5 °F 21.8 °F 25.2 °F 78% 30.25 in 10.0 mi West 12.7 mph 16.1 mph N/A   Overcast
2:14 AM 31.5 °F 24.2 °F 24.3 °F 75% 30.26 in 10.0 mi West 8.1 mph - N/A   Overcast
2:33 AM 31.3 °F 23.9 °F 24.6 °F 76% 30.26 in 10.0 mi West 8.1 mph - N/A   Overcast
2:53 AM 31.5 °F 24.2 °F 24.4 °F 75% 30.27 in 10.0 mi WNW 8.1 mph - N/A   Overcast
3:13 AM 31.5 °F 24.9 °F 23.4 °F 72% 30.27 in 10.0 mi West 6.9 mph - N/A   Overcast
3:33 AM 31.5 °F 22.3 °F 23.0 °F 71% 30.28 in 10.0 mi West 11.5 mph - N/A   Overcast
3:53 AM 31.5 °F 24.9 °F 23.0 °F 71% 30.28 in 10.0 mi West 6.9 mph - N/A   Overcast
4:13 AM 31.1 °F 25.4 °F 23.7 °F 74% 30.29 in 10.0 mi West 5.8 mph - N/A   Overcast
4:33 AM 31.1 °F 24.5 °F 23.7 °F 74% 30.30 in 10.0 mi West 6.9 mph - N/A Snow Light Snow
4:53 AM 30.9 °F 22.2 °F 22.3 °F 70% 30.30 in 10.0 mi West 10.4 mph - N/A   Overcast
5:13 AM 30.9 °F 22.8 °F 21.2 °F 67% 30.31 in 10.0 mi West 9.2 mph - N/A   Overcast
5:33 AM 30.9 °F 22.8 °F 21.2 °F 67% 30.32 in 10.0 mi West 9.2 mph - N/A   Overcast
5:53 AM 30.6 °F 24.7 °F 21.7 °F 70% 30.32 in 10.0 mi West 5.8 mph - N/A   Overcast
6:13 AM 30.0 °F 24.1 °F 20.5 °F 68% 30.34 in 10.0 mi West 5.8 mph - N/A   Mostly Cloudy
6:33 AM 29.3 °F 22.3 °F 20.8 °F 71% 30.35 in 10.0 mi West 6.9 mph - N/A   Clear
6:53 AM 29.3 °F 24.3 °F 20.5 °F 70% 30.36 in 10.0 mi West 4.6 mph - N/A   Mostly Cloudy
7:13 AM 29.5 °F 24.5 °F 21.2 °F 71% 30.37 in 10.0 mi West 4.6 mph - N/A   Overcast
7:33 AM 29.8 °F - 21.0 °F 70% 30.37 in 10.0 mi Calm Calm - N/A   Overcast
7:53 AM 30.2 °F 26.7 °F 21.0 °F 69% 30.38 in 10.0 mi West 3.5 mph - N/A   Overcast
8:13 AM 30.6 °F 25.8 °F 20.7 °F 67% 30.39 in 10.0 mi West 4.6 mph - N/A   Overcast
8:33 AM 30.7 °F 24.9 °F 20.7 °F 66% 30.40 in 10.0 mi West 5.8 mph - N/A   Overcast
8:53 AM 31.1 °F 24.5 °F 20.8 °F 66% 30.41 in 10.0 mi West 6.9 mph - N/A   Overcast
9:13 AM 31.5 °F 23.5 °F 21.2 °F 66% 30.41 in 10.0 mi West 9.2 mph - N/A   Overcast
9:33 AM 31.5 °F 24.2 °F 20.5 °F 64% 30.42 in 10.0 mi West 8.1 mph - N/A   Overcast
9:53 AM 31.6 °F 25.1 °F 20.8 °F 64% 30.43 in 10.0 mi West 6.9 mph - N/A   Overcast
10:13 AM 32.0 °F 24.8 °F 21.2 °F 64% 30.43 in 10.0 mi WNW 8.1 mph - N/A   Overcast
10:33 AM 32.0 °F 24.8 °F 21.6 °F 65% 30.44 in 10.0 mi West 8.1 mph - N/A   Overcast
10:53 AM 32.0 °F 25.6 °F 20.8 °F 63% 30.45 in 10.0 mi West 6.9 mph - N/A   Overcast
11:13 AM 32.0 °F 25.6 °F 19.8 °F 61% 30.45 in 10.0 mi West 6.9 mph - N/A   Overcast
11:33 AM 32.0 °F 25.6 °F 18.3 °F 57% 30.45 in 10.0 mi West 6.9 mph - N/A   Mostly Cloudy
11:53 AM 32.2 °F - 21.2 °F 64% 30.44 in 10.0 mi North - - N/A   Overcast
12:13 PM 32.5 °F 27.1 °F 19.8 °F 59% 30.44 in 10.0 mi WNW 5.8 mph - N/A   Overcast
12:33 PM 32.5 °F - 19.9 °F 60% 30.43 in 10.0 mi Calm Calm - N/A   Mostly Cloudy
12:53 PM 34.5 °F 28.6 °F 20.3 °F 56% 30.43 in 10.0 mi West 6.9 mph - N/A   Mostly Cloudy
1:13 PM 35.6 °F 29.2 °F 20.8 °F 55% 30.43 in 10.0 mi WSW 8.1 mph - N/A   Overcast
1:53 PM 34.0 °F 28.0 °F 20.1 °F 57% 30.43 in 10.0 mi WSW 6.9 mph - N/A   Overcast
2:13 PM 35.4 °F 29.0 °F 19.9 °F 53% 30.43 in 10.0 mi West 8.1 mph - N/A   Overcast
2:33 PM 33.6 °F 27.5 °F 20.1 °F 58% 30.44 in 10.0 mi WNW 6.9 mph - N/A   Overcast
2:53 PM 33.1 °F 26.9 °F 19.0 °F 56% 30.44 in 10.0 mi West 6.9 mph - N/A   Overcast
3:13 PM 33.1 °F 30.0 °F 19.2 °F 57% 30.44 in 10.0 mi WSW 3.5 mph - N/A   Scattered Clouds
3:33 PM 32.9 °F 27.5 °F 19.6 °F 58% 30.45 in 10.0 mi WSW 5.8 mph - N/A   Scattered Clouds
3:53 PM 33.3 °F 27.9 °F 18.9 °F 56% 30.45 in 10.0 mi West 5.8 mph - N/A   Mostly Cloudy
4:13 PM 32.5 °F 28.1 °F 18.9 °F 57% 30.45 in 10.0 mi WSW 4.6 mph - N/A   Mostly Cloudy
4:33 PM 33.3 °F 28.9 °F 19.0 °F 56% 30.47 in 10.0 mi SW 4.6 mph - N/A   Overcast
4:53 PM 32.4 °F 26.9 °F 20.3 °F 61% 30.46 in 10.0 mi SW 5.8 mph - N/A   Overcast
5:13 PM 32.0 °F 28.7 °F 20.7 °F 63% 30.47 in 10.0 mi SW 3.5 mph - N/A   Mostly Cloudy
5:33 PM 31.6 °F 28.3 °F 20.8 °F 64% 30.47 in 10.0 mi SW 3.5 mph - N/A   Scattered Clouds
5:53 PM 31.1 °F 27.7 °F 21.2 °F 67% 30.48 in 10.0 mi SW 3.5 mph - N/A   Scattered Clouds
6:13 PM 29.8 °F 26.3 °F 22.3 °F 73% 30.48 in 10.0 mi SSW 3.5 mph - N/A   Scattered Clouds
6:33 PM 28.9 °F - 22.6 °F 77% 30.49 in 10.0 mi Calm Calm - N/A   Scattered Clouds
6:53 PM 28.4 °F 24.6 °F 22.1 °F 77% 30.49 in 10.0 mi SSW 3.5 mph - N/A   Scattered Clouds
7:13 PM 28.0 °F 24.2 °F 22.3 °F 79% 30.49 in 10.0 mi South 3.5 mph - N/A   Scattered Clouds
7:33 PM 28.0 °F 24.2 °F 22.1 °F 78% 30.50 in 10.0 mi South 3.5 mph - N/A   Clear
7:53 PM 27.3 °F - 23.7 °F 86% 30.50 in 10.0 mi Calm Calm - N/A   Clear
8:13 PM 27.3 °F - 23.7 °F 86% 30.50 in 10.0 mi Calm Calm - N/A   Clear
8:33 PM 26.8 °F - 23.0 °F 86% 30.51 in 10.0 mi Calm Calm - N/A   Clear
8:53 PM 25.9 °F - 24.8 °F 96% 30.51 in 10.0 mi Calm Calm - N/A   Clear
9:13 PM 25.0 °F - 25.0 °F 100% 30.52 in 10.0 mi Calm Calm - N/A   Clear
9:34 PM 23.7 °F - 23.7 °F 100% 30.52 in 10.0 mi Calm Calm - N/A   Clear
9:53 PM 24.3 °F - 24.3 °F 100% 30.52 in 10.0 mi Calm Calm - N/A   Clear
10:13 PM 23.9 °F - 23.9 °F 100% 30.53 in 10.0 mi Calm Calm - N/A   Clear
10:34 PM 23.9 °F - 23.9 °F 100% 30.53 in 10.0 mi Calm Calm - N/A   Clear
10:53 PM 22.6 °F - 22.6 °F 100% 30.53 in 10.0 mi Calm Calm - N/A   Clear
11:13 PM 23.4 °F - 23.4 °F 100% 30.53 in 10.0 mi Calm Calm - N/A   Clear
11:33 PM 22.5 °F - 22.5 °F 100% 30.53 in 10.0 mi Calm Calm - N/A   Clear
11:53 PM 22.8 °F - 22.8 °F 100% 30.53 in 10.0 mi Calm Calm - N/A   Clear